Regional Weather Roundup
Issued by NWS

Home | Current Version | Previous Version | Text Only | Print | Product List | Glossary Off
Versions: 1 2 3 4 5 6 7 8 9 10 11 12 13 14 15 16 17 18 19 20 21 22 23 24 25 26 27 28 29 30 31 32 33 34 35 36 37 38 39 40 41 42 43 44 45 46 47 48 49 50

000
ASUS43 KFSD 231402
RWRSD

WEATHER ROUNDUP FOR SOUTH DAKOTA
NATIONAL WEATHER SERVICE SIOUX FALLS SD
800 AM CST SUN NOV 23 2014

NOTE: "FAIR" INDICATES FEW OR NO CLOUDS BELOW 12,000 FEET WITH NO
SIGNIFICANT WEATHER AND/OR OBSTRUCTIONS TO VISIBILITY.


SDZ001>005-009-010-012>017-231500-
NORTHWEST AND NORTH CENTRAL SOUTH DAKOTA

CITY           SKY/WX    TMP DP  RH WIND       PRES   REMARKS
BUFFALO          N/A     35  25  66 W30G43    29.55R WCI  22
FAITH            N/A     34  25  69 W22G31    29.58S WCI  22
MOBRIDGE       CLOUDY    38  31  76 NW9       29.50R
$$

SDZ012>016-024>037-041>051-057-063-072>074-231500-
SOUTHWEST AND SOUTH CENTRAL SOUTH DAKOTA

CITY           SKY/WX    TMP DP  RH WIND       PRES   REMARKS
RAPID CTY ARPT CLEAR     36  18  48 NW17      29.66R
PIERRE         PTCLDY    37  31  78 NW15      29.58R
CUSTER         CLEAR     28  13  53 NW14G26   29.64R WCI  17
ELLSWORTH AFB  CLEAR     37  19  48 NW23G30   29.65R
PHILIP         CLEAR     42  26  53 NW17G25   29.61R
PINE RIDGE     PTCLDY    27  22  81 W6        29.70R WCI  20
WINNER         FAIR      39  30  70 NW15G24   29.61R
$$

SDZ004>011-016>023-039-040-231500-
NORTHEAST SOUTH DAKOTA

CITY           SKY/WX    TMP DP  RH WIND       PRES   REMARKS
ABERDEEN       CLOUDY    39  32  76 W16       29.49R
WATERTOWN      CLOUDY    37  33  85 NW14      29.48R
SISSETON         N/A     39  36  89 NW9       29.45R
$$

SDZ017-020-022-023-036>040-048>070-231500-
SOUTHEAST SOUTH DAKOTA

CITY           SKY/WX    TMP DP  RH WIND       PRES   REMARKS
SIOUX FALLS    CLOUDY    41  35  79 NW14      29.49R
HURON          CLOUDY    38  33  82 NW14      29.52R
MITCHELL       CLOUDY    40  36  86 W7        29.55R
YANKTON        CLOUDY    41  34  75 NW16      29.53R
$$

ABBREVIATIONS USED IN REMARKS
   TC - TEMPERATURE IN CELSIUS
  WCI - WIND CHILL INDEX
   HX - HEAT INDEX
  VSB - VISIBILITY




USA.gov is the U.S. government's official web portal to all federal, state and local government web resources and services.